Time,TemperatureF,DewpointF,PressureIn,WindDirection,WindDirectionDegrees,WindSpeedMPH,WindSpeedGustMPH,Humidity,HourlyPrecipIn,Conditions,Clouds,dailyrainin,SolarRadiationWatts/m^2,SoftwareType,DateUTC
2013-02-09 00:11:00,12.0,8.0,-100.00,SSE,150,4.0,10.0,84,0.00,,,0.00,0.000000,,2013-02-09 06:11:00,
2013-02-09 00:21:00,12.0,8.0,-100.00,SSE,150,4.0,10.0,84,0.00,,,0.00,0.000000,,2013-02-09 06:21:00,
2013-02-09 00:32:00,12.0,8.0,-100.00,SSE,150,4.0,10.0,84,0.00,,,0.00,0.000000,,2013-02-09 06:32:00,
2013-02-09 00:42:00,12.0,8.0,-100.00,SSE,150,4.0,10.0,84,0.00,,,0.00,0.000000,,2013-02-09 06:42:00,
2013-02-09 01:11:00,11.0,8.0,-100.00,SSE,153,4.0,9.0,87,0.00,,,0.00,0.000000,,2013-02-09 07:11:00,
2013-02-09 01:21:00,11.0,8.0,-100.00,SSE,153,4.0,9.0,87,0.00,,,0.00,0.000000,,2013-02-09 07:21:00,
2013-02-09 01:31:00,11.0,8.0,-100.00,SSE,153,4.0,9.0,87,0.00,,,0.00,0.000000,,2013-02-09 07:31:00,
2013-02-09 01:42:00,11.0,8.0,-100.00,SSE,153,4.0,9.0,87,0.00,,,0.00,0.000000,,2013-02-09 07:42:00,
2013-02-09 02:11:00,11.0,8.0,-100.00,SE,142,4.0,7.0,86,0.00,,,0.00,0.000000,,2013-02-09 08:11:00,
2013-02-09 02:21:00,11.0,8.0,-100.00,SE,142,4.0,7.0,86,0.00,,,0.00,0.000000,,2013-02-09 08:21:00,
2013-02-09 02:31:00,11.0,8.0,-100.00,SE,142,4.0,7.0,86,0.00,,,0.00,0.000000,,2013-02-09 08:31:00,
2013-02-09 03:11:00,10.0,6.0,-100.00,SSE,153,4.0,9.0,85,-99.99,,,0.00,0.000000,,2013-02-09 09:11:00,
2013-02-09 03:21:00,10.0,6.0,-100.00,SSE,153,4.0,9.0,85,-99.99,,,0.00,0.000000,,2013-02-09 09:21:00,
2013-02-09 04:11:00,5.0,0.0,-100.00,SE,126,2.0,5.0,81,0.00,,,0.00,0.000000,,2013-02-09 10:11:00,
2013-02-09 04:21:00,5.0,0.0,-100.00,SE,126,2.0,5.0,81,0.00,,,0.00,0.000000,,2013-02-09 10:21:00,
2013-02-09 04:32:00,5.0,0.0,-100.00,SE,126,2.0,5.0,81,0.00,,,0.00,0.000000,,2013-02-09 10:32:00,
2013-02-09 04:42:00,5.0,0.0,-100.00,SE,126,2.0,5.0,81,0.00,,,0.00,0.000000,,2013-02-09 10:42:00,
2013-02-09 05:11:00,8.0,5.0,-100.00,SSE,152,3.0,6.0,87,0.00,,,0.00,0.000000,,2013-02-09 11:11:00,
2013-02-09 05:22:00,8.0,5.0,-100.00,SSE,152,3.0,6.0,87,0.00,,,0.00,0.000000,,2013-02-09 11:22:00,
2013-02-09 05:32:00,8.0,5.0,-100.00,SSE,152,3.0,6.0,87,0.00,,,0.00,0.000000,,2013-02-09 11:32:00,
2013-02-09 05:41:00,8.0,5.0,-100.00,SSE,152,3.0,6.0,87,0.00,,,0.00,0.000000,,2013-02-09 11:41:00,
2013-02-09 06:11:00,8.0,5.0,-100.00,SE,145,5.0,8.0,87,0.00,,,0.00,0.000000,,2013-02-09 12:11:00,
2013-02-09 06:21:00,8.0,5.0,-100.00,SE,145,5.0,8.0,87,0.00,,,0.00,0.000000,,2013-02-09 12:21:00,
2013-02-09 06:32:00,8.0,5.0,-100.00,SE,145,5.0,8.0,87,0.00,,,0.00,0.000000,,2013-02-09 12:32:00,
2013-02-09 06:42:00,8.0,5.0,-100.00,SE,145,5.0,8.0,87,0.00,,,0.00,0.000000,,2013-02-09 12:42:00,
2013-02-09 07:11:00,11.0,8.0,-100.00,SSE,149,5.0,11.0,89,0.00,,,0.00,0.000000,,2013-02-09 13:11:00,
2013-02-09 07:22:00,11.0,8.0,-100.00,SSE,149,5.0,11.0,89,0.00,,,0.00,0.000000,,2013-02-09 13:22:00,
2013-02-09 07:32:00,11.0,8.0,-100.00,SSE,149,5.0,11.0,89,0.00,,,0.00,0.000000,,2013-02-09 13:32:00,
2013-02-09 07:42:00,11.0,8.0,-100.00,SSE,149,5.0,11.0,89,0.00,,,0.00,0.000000,,2013-02-09 13:42:00,
2013-02-09 08:11:00,13.0,11.0,-100.00,SSE,148,5.0,10.0,90,0.00,,,0.00,2.000000,,2013-02-09 14:11:00,
2013-02-09 08:21:00,13.0,11.0,-100.00,SSE,148,5.0,10.0,90,0.00,,,0.00,2.000000,,2013-02-09 14:21:00,
2013-02-09 08:32:00,13.0,11.0,-100.00,SSE,148,5.0,10.0,90,0.00,,,0.00,2.000000,,2013-02-09 14:32:00,
2013-02-09 08:42:00,13.0,11.0,-100.00,SSE,148,5.0,10.0,90,0.00,,,0.00,2.000000,,2013-02-09 14:42:00,
2013-02-09 09:11:00,16.0,13.0,-100.00,SSE,164,6.0,13.0,89,0.00,,,0.00,18.000000,,2013-02-09 15:11:00,
2013-02-09 09:21:00,16.0,13.0,-100.00,SSE,164,6.0,13.0,89,0.00,,,0.00,18.000000,,2013-02-09 15:21:00,
2013-02-09 09:32:00,16.0,13.0,-100.00,SSE,164,6.0,13.0,89,0.00,,,0.00,18.000000,,2013-02-09 15:32:00,
2013-02-09 09:42:00,16.0,13.0,-100.00,SSE,164,6.0,13.0,89,0.00,,,0.00,18.000000,,2013-02-09 15:42:00,
2013-02-09 10:11:00,18.0,15.0,-100.00,SSE,166,6.0,14.0,88,0.00,,,0.00,33.000000,,2013-02-09 16:11:00,
2013-02-09 10:22:00,18.0,15.0,-100.00,SSE,166,6.0,14.0,88,0.00,,,0.00,33.000000,,2013-02-09 16:22:00,
2013-02-09 10:31:00,18.0,15.0,-100.00,SSE,166,6.0,14.0,88,0.00,,,0.00,33.000000,,2013-02-09 16:31:00,
2013-02-09 10:42:00,18.0,15.0,-100.00,SSE,166,6.0,14.0,88,0.00,,,0.00,33.000000,,2013-02-09 16:42:00,
2013-02-09 11:11:00,20.0,17.0,-100.00,South,169,7.0,15.0,87,0.00,,,0.00,48.000000,,2013-02-09 17:11:00,
2013-02-09 11:21:00,20.0,17.0,-100.00,South,169,7.0,15.0,87,0.00,,,0.00,48.000000,,2013-02-09 17:21:00,
2013-02-09 11:32:00,20.0,17.0,-100.00,South,169,7.0,15.0,87,0.00,,,0.00,48.000000,,2013-02-09 17:32:00,
2013-02-09 11:42:00,20.0,17.0,-100.00,South,169,7.0,15.0,87,0.00,,,0.00,48.000000,,2013-02-09 17:42:00,
2013-02-09 12:12:00,23.0,18.0,-100.00,SSE,157,7.0,15.0,82,0.00,,,0.00,64.000000,,2013-02-09 18:12:00,
2013-02-09 12:23:00,23.0,18.0,-100.00,SSE,157,7.0,15.0,82,0.00,,,0.00,64.000000,,2013-02-09 18:23:00,
2013-02-09 12:32:00,23.0,18.0,-100.00,SSE,157,7.0,15.0,82,0.00,,,0.00,64.000000,,2013-02-09 18:32:00,
2013-02-09 12:42:00,23.0,18.0,-100.00,SSE,157,7.0,15.0,82,0.00,,,0.00,64.000000,,2013-02-09 18:42:00,
2013-02-09 13:11:00,26.0,20.0,-100.00,South,172,8.0,16.0,78,0.00,,,0.00,62.000000,,2013-02-09 19:11:00,
2013-02-09 13:22:00,26.0,20.0,-100.00,South,172,8.0,16.0,78,0.00,,,0.00,62.000000,,2013-02-09 19:22:00,
2013-02-09 13:32:00,26.0,20.0,-100.00,South,172,8.0,16.0,78,0.00,,,0.00,62.000000,,2013-02-09 19:32:00,
2013-02-09 13:42:00,26.0,20.0,-100.00,South,172,8.0,16.0,78,0.00,,,0.00,62.000000,,2013-02-09 19:42:00,
2013-02-09 14:11:00,27.0,21.0,-100.00,South,169,7.0,16.0,77,0.00,,,0.00,56.000000,,2013-02-09 20:11:00,
2013-02-09 14:21:00,27.0,21.0,-100.00,South,169,7.0,16.0,77,0.00,,,0.00,56.000000,,2013-02-09 20:21:00,
2013-02-09 14:32:00,27.0,21.0,-100.00,South,169,7.0,16.0,77,0.00,,,0.00,56.000000,,2013-02-09 20:32:00,
2013-02-09 14:42:00,27.0,21.0,-100.00,South,169,7.0,16.0,77,0.00,,,0.00,56.000000,,2013-02-09 20:42:00,
2013-02-09 15:11:00,28.0,21.0,-100.00,South,172,8.0,14.0,76,0.00,,,0.00,47.000000,,2013-02-09 21:11:00,
2013-02-09 15:21:00,28.0,21.0,-100.00,South,172,8.0,14.0,76,0.00,,,0.00,47.000000,,2013-02-09 21:21:00,
2013-02-09 15:32:00,28.0,21.0,-100.00,South,172,8.0,14.0,76,0.00,,,0.00,47.000000,,2013-02-09 21:32:00,
2013-02-09 15:42:00,28.0,21.0,-100.00,South,172,8.0,14.0,76,0.00,,,0.00,47.000000,,2013-02-09 21:42:00,
2013-02-09 16:11:00,27.0,21.0,-100.00,SSE,166,7.0,14.0,78,0.00,,,0.00,30.000000,,2013-02-09 22:11:00,
2013-02-09 16:21:00,27.0,21.0,-100.00,SSE,166,7.0,14.0,78,0.00,,,0.00,30.000000,,2013-02-09 22:21:00,
2013-02-09 16:32:00,27.0,21.0,-100.00,SSE,166,7.0,14.0,78,0.00,,,0.00,30.000000,,2013-02-09 22:32:00,
2013-02-09 16:42:00,27.0,21.0,-100.00,SSE,166,7.0,14.0,78,0.00,,,0.00,30.000000,,2013-02-09 22:42:00,
2013-02-09 17:11:00,27.0,21.0,-100.00,SSE,155,5.0,12.0,79,0.00,,,0.00,16.000000,,2013-02-09 23:11:00,
2013-02-09 17:21:00,27.0,21.0,-100.00,SSE,155,5.0,12.0,79,0.00,,,0.00,16.000000,,2013-02-09 23:21:00,
2013-02-09 17:32:00,27.0,21.0,-100.00,SSE,155,5.0,12.0,79,0.00,,,0.00,16.000000,,2013-02-09 23:32:00,
2013-02-09 17:42:00,27.0,21.0,-100.00,SSE,155,5.0,12.0,79,0.00,,,0.00,16.000000,,2013-02-09 23:42:00,
2013-02-09 18:12:00,27.0,22.0,-100.00,SSE,151,5.0,11.0,82,0.00,,,0.00,2.000000,,2013-02-10 00:12:00,
2013-02-09 18:22:00,27.0,22.0,-100.00,SSE,151,5.0,11.0,82,0.00,,,0.00,2.000000,,2013-02-10 00:22:00,
2013-02-09 18:32:00,27.0,22.0,-100.00,SSE,151,5.0,11.0,82,0.00,,,0.00,2.000000,,2013-02-10 00:32:00,
2013-02-09 18:42:00,27.0,22.0,-100.00,SSE,151,5.0,11.0,82,0.00,,,0.00,2.000000,,2013-02-10 00:42:00,
2013-02-09 19:12:00,27.0,22.0,-100.00,SSE,158,8.0,15.0,82,0.00,,,0.00,0.000000,,2013-02-10 01:12:00,
2013-02-09 19:21:00,27.0,22.0,-100.00,SSE,158,8.0,15.0,82,0.00,,,0.00,0.000000,,2013-02-10 01:21:00,
2013-02-09 19:32:00,27.0,22.0,-100.00,SSE,158,8.0,15.0,82,0.00,,,0.00,0.000000,,2013-02-10 01:32:00,
2013-02-09 19:42:00,27.0,22.0,-100.00,SSE,158,8.0,15.0,82,0.00,,,0.00,0.000000,,2013-02-10 01:42:00,
2013-02-09 20:11:00,26.0,22.0,-100.00,SE,144,6.0,16.0,83,0.00,,,0.00,0.000000,,2013-02-10 02:11:00,
2013-02-09 20:22:00,26.0,22.0,-100.00,SE,144,6.0,16.0,83,0.00,,,0.00,0.000000,,2013-02-10 02:22:00,
2013-02-09 20:32:00,26.0,22.0,-100.00,SE,144,6.0,16.0,83,0.00,,,0.00,0.000000,,2013-02-10 02:32:00,
2013-02-09 20:42:00,26.0,22.0,-100.00,SE,144,6.0,16.0,83,0.00,,,0.00,0.000000,,2013-02-10 02:42:00,
2013-02-09 21:11:00,26.0,22.0,-100.00,SSE,163,6.0,15.0,84,0.00,,,0.00,0.000000,,2013-02-10 03:11:00,
2013-02-09 21:21:00,26.0,22.0,-100.00,SSE,163,6.0,15.0,84,0.00,,,0.00,0.000000,,2013-02-10 03:21:00,
2013-02-09 21:32:00,26.0,22.0,-100.00,SSE,163,6.0,15.0,84,0.00,,,0.00,0.000000,,2013-02-10 03:32:00,
2013-02-09 21:41:00,26.0,22.0,-100.00,SSE,163,6.0,15.0,84,0.00,,,0.00,0.000000,,2013-02-10 03:41:00,
2013-02-09 22:11:00,26.0,22.0,-100.00,SSE,165,7.0,13.0,84,0.00,,,0.00,0.000000,,2013-02-10 04:11:00,
2013-02-09 22:21:00,26.0,22.0,-100.00,SSE,165,7.0,13.0,84,0.00,,,0.00,0.000000,,2013-02-10 04:21:00,
2013-02-09 22:32:00,26.0,22.0,-100.00,SSE,165,7.0,13.0,84,0.00,,,0.00,0.000000,,2013-02-10 04:32:00,
2013-02-09 22:42:00,26.0,22.0,-100.00,SSE,165,7.0,13.0,84,0.00,,,0.00,0.000000,,2013-02-10 04:42:00,
2013-02-09 23:11:00,26.0,22.0,-100.00,SSE,165,7.0,14.0,84,0.00,,,0.00,0.000000,,2013-02-10 05:11:00,
2013-02-09 23:22:00,26.0,22.0,-100.00,SSE,165,7.0,14.0,84,0.00,,,0.00,0.000000,,2013-02-10 05:22:00,
2013-02-09 23:31:00,26.0,22.0,-100.00,SSE,165,7.0,14.0,84,0.00,,,0.00,0.000000,,2013-02-10 05:31:00,
2013-02-09 23:41:00,26.0,22.0,-100.00,SSE,165,7.0,14.0,84,0.00,,,0.00,0.000000,,2013-02-10 05:41:00,